Wind_Speed
26 26 26 26 25 25 24 25 25 25 25 25 24 24 23 23 23 22 22 22 23 24 24 24 24 25 26 26 26 26 26 25 25 23 22 23 25 27 28 27 26 25 25 26 26 27 28 25 21 19 20 21 22 23 23 23 24 24 25 25 24 24 24
24 24 24 23 23 23 22 21 21 20 20 20 19 19 18 18 18 17 17 17 17 18 18 19 20 21 22 23 23 23 23 22 22 21 20 19 21 24 26 26 26 25 24 25 26 27 28 28 23 18 19 21 21 21 22 23 23 23 24 25 25 25 26
22 22 21 21 20 20 19 18 17 16 15 15 15 14 14 14 13 13 13 12 12 12 13 13 15 16 17 18 18 19 19 18 18 18 17 17 18 19 21 23 25 26 25 24 25 26 27 28 26 21 19 21 21 21 22 22 22 22 23 24 25 25 27
21 20 19 19 18 18 16 15 14 13 12 12 11 11 11 12 11 11 12 11 11 10 10 10 10 11 12 12 13 14 14 14 14 14 14 15 16 17 18 20 21 23 24 24 24 25 26 26 26 24 21 21 22 21 20 21 21 22 24 25 25 25 26
18 18 18 18 18 16 15 13 12 12 11 10 9 10 10 11 10 11 11 11 11 10 10 9 8 7 8 8 10 11 11 12 12 12 12 13 14 15 16 17 19 20 21 22 23 24 25 26 25 24 22 22 22 20 19 20 20 22 23 24 25 25 26
17 16 16 16 17 15 14 13 12 12 11 10 10 11 11 11 10 10 10 10 10 10 10 10 9 8 7 7 8 9 10 10 10 11 11 11 11 12 14 15 17 18 19 20 21 22 24 25 25 24 23 22 22 20 20 20 20 20 22 24 25 25 26
16 16 16 16 16 15 13 13 12 12 11 11 11 11 11 11 10 10 10 10 10 10 10 10 10 9 9 9 9 8 9 10 10 11 11 10 10 11 13 14 15 16 17 18 19 20 21 23 23 23 23 23 22 21 20 20 20 19 20 23 24 25 25
16 15 15 15 15 14 13 12 12 12 11 10 10 10 10 10 10 9 9 10 10 10 10 10 10 9 9 9 8 7 8 9 10 10 10 11 11 11 12 13 13 14 14 15 16 16 17 19 20 21 23 24 22 20 20 19 18 19 20 21 22 23 23
16 16 15 15 14 13 13 12 11 11 11 10 10 9 9 8 8 8 8 9 10 10 9 9 9 9 8 9 9 7 7 8 9 9 10 11 11 11 12 13 13 13 13 14 15 15 15 15 16 18 20 22 21 19 18 16 16 18 19 19 20 20 21
16 16 16 15 14 13 12 11 10 10 10 10 9 8 8 8 8 8 8 9 9 9 9 8 8 8 8 9 9 9 8 8 8 9 10 10 10 11 12 12 13 13 13 14 14 14 14 14 14 16 19 20 20 18 17 14 14 15 17 18 18 17 17
15 16 16 15 15 14 13 11 10 8 9 9 7 6 6 7 8 9 9 9 9 9 8 8 7 7 8 8 8 8 8 8 8 9 9 9 10 10 11 12 13 13 13 14 14 14 13 13 13 14 16 19 19 18 15 12 11 12 13 14 15 15 13
14 15 16 15 14 13 13 12 10 9 8 8 7 7 8 8 8 8 8 8 8 8 8 8 7 7 8 8 8 8 8 9 9 10 10 10 10 10 11 12 13 13 13 14 14 15 14 14 13 12 13 15 16 16 14 11 10 11 12 13 13 14 12
13 14 14 14 13 12 12 12 11 9 9 9 9 9 9 9 8 8 7 7 7 7 7 7 7 7 8 8 8 8 9 10 10 11 11 11 11 11 11 12 12 13 13 13 13 14 14 14 13 11 10 10 12 14 14 12 10 11 13 13 12 12 11
12 13 13 14 12 11 10 10 10 9 9 9 9 9 8 8 7 7 6 6 6 6 7 7 8 8 8 8 9 9 10 11 11 11 12 12 12 12 11 11 11 11 12 12 12 12 13 13 13 12 10 10 10 12 12 12 11 10 11 11 10 10 11
13 13 13 13 12 10 9 9 10 10 9 9 9 8 7 7 6 6 6 5 5 6 7 7 8 8 9 9 9 10 10 10 10 11 11 11 11 12 11 10 10 10 10 11 11 11 11 12 12 12 11 11 10 11 11 11 11 11 11 11 11 11 11
14 13 13 12 11 10 9 9 9 10 9 9 9 8 7 7 6 6 6 6 6 6 6 7 7 8 8 8 8 8 9 9 9 9 9 9 9 10 10 10 10 10 10 10 11 11 11 11 12 11 11 11 11 10 11 11 11 12 12 12 12 12 12
14 12 12 11 11 10 8 8 9 10 9 8 8 7 7 6 6 6 6 6 5 6 6 6 7 7 7 7 7 7 8 8 8 8 8 8 8 9 9 9 9 9 10 11 11 11 11 12 12 12 11 11 12 11 11 11 12 13 14 14 14 14 13
13 12 11 11 10 9 8 8 9 10 9 8 7 7 6 6 6 5 5 5 5 6 6 6 7 7 7 7 7 7 8 8 8 8 8 8 8 9 9 9 9 9 10 10 10 11 12 12 13 13 12 12 13 13 13 13 14 14 15 16 16 16 16
12 11 10 10 9 8 7 7 8 8 7 7 6 6 6 5 5 5 5 5 5 6 6 6 6 7 7 7 7 8 8 8 8 8 8 8 8 8 9 9 9 9 9 9 10 10 11 12 13 13 13 13 14 14 14 15 15 16 17 17 17 17 18
10 10 9 8 8 7 6 6 6 6 5 5 6 5 5 5 5 5 5 5 5 6 6 6 6 6 7 7 7 7 7 7 7 7 7 7 8 8 8 8 8 8 9 9 9 9 10 11 11 12 13 13 14 14 15 15 16 17 18 18 19 19 19
9 8 8 7 7 6 5 5 5 4 4 4 5 5 5 5 5 5 5 5 5 6 6 6 6 6 6 6 7 7 7 7 7 7 7 7 7 8 8 8 9 9 9 9 9 9 10 10 11 11 12 12 13 13 14 15 15 16 17 18 19 19 19
8 8 7 6 5 5 4 4 3 3 3 3 4 4 4 5 5 5 5 6 6 6 7 7 7 7 6 6 6 7 7 7 7 7 7 7 8 8 9 9 9 9 9 10 10 10 10 11 11 11 11 12 12 12 13 13 14 15 16 17 17 18 19
8 7 7 5 4 4 3 2 1 1 2 3 4 4 5 5 6 6 6 7 7 7 7 7 7 7 7 7 7 7 8 8 8 8 8 8 8 9 9 9 9 9 9 9 9 9 9 9 10 10 10 10 11 11 11 11 12 12 13 14 15 16 17
7 7 6 5 3 3 2 1 1 1 2 3 4 5 6 6 7 7 7 7 7 7 7 7 7 8 8 8 8 8 9 9 9 9 9 9 8 8 8 8 8 8 7 7 7 7 7 7 7 7 8 8 9 9 9 9 10 10 11 12 12 13 14
7 6 6 4 3 3 2 1 1 2 3 4 5 6 6 7 7 7 7 7 6 7 7 7 7 8 9 9 9 9 9 9 9 9 8 8 7 7 7 6 6 6 6 7 7 7 7 7 7 8 8 8 8 9 9 9 9 10 11 11 12 13 14
6 6 6 5 4 3 2 2 2 3 4 5 5 6 6 7 7 7 6 6 6 6 6 7 8 9 9 9 9 8 8 8 7 7 7 7 7 6 6 6 6 6 7 8 8 9 10 10 11 11 11 11 12 12 12 12 13 13 14 14 14 15 15
6 6 6 5 4 3 3 3 4 4 5 5 6 6 6 6 6 6 5 6 6 6 7 7 8 9 9 8 8 7 6 6 6 6 7 7 7 7 7 7 7 7 8 9 10 11 12 12 13 13 13 13 14 14 15 16 17 17 17 18 18 17 18
6 6 6 5 5 5 4 4 5 6 6 6 6 6 6 6 6 6 6 6 6 7 7 8 8 8 7 7 6 5 5 5 6 6 7 7 7 8 8 8 8 8 9 10 11 11 12 12 12 12 13 13 14 15 16 17 17 18 19 20 20 21 21
7 7 6 6 6 6 5 5 6 7 7 7 6 6 6 6 6 6 6 7 7 7 7 7 7 6 6 5 5 5 5 6 6 6 7 7 7 8 8 8 8 8 9 10 10 11 11 11 11 11 12 13 14 15 16 17 18 19 20 21 22 23 23
8 8 7 8 8 7 6 6 7 7 7 7 7 7 6 6 6 6 7 7 7 7 7 7 6 6 5 5 5 5 6 6 6 7 7 7 7 7 7 7 7 8 9 9 10 10 11 11 11 11 12 13 14 15 16 18 19 20 21 22 22 23 23
9 9 9 9 9 8 8 7 7 8 8 7 7 7 7 7 6 7 7 7 7 7 6 6 5 5 5 6 6 6 6 6 7 7 7 8 8 7 7 7 7 8 8 9 10 11 11 11 12 12 12 13 14 15 17 18 19 20 21 21 22 23 24
9 10 10 10 10 10 9 9 8 8 8 8 8 8 7 7 7 7 8 7 7 6 5 5 5 5 6 6 7 7 7 7 7 7 7 8 8 8 7 7 7 7 8 8 9 10 11 11 12 12 12 13 14 15 16 17 18 19 20 21 21 22 23
10 11 11 11 11 11 11 10 10 9 8 8 8 8 8 8 7 7 8 8 7 6 5 5 5 5 6 6 7 7 7 7 7 7 7 7 7 7 7 7 6 6 7 7 8 10 11 11 11 11 12 12 13 14 14 15 16 17 18 19 20 22 23
12 12 13 13 12 12 12 12 11 10 9 9 9 8 8 8 8 7 7 7 7 6 5 5 5 5 6 6 7 7 7 7 7 7 7 7 7 7 7 7 6 6 7 7 8 9 10 11 11 11 11 12 12 13 14 15 16 16 17 18 20 22 23
13 13 14 14 13 13 13 13 12 11 10 10 9 9 9 9 9 8 7 7 7 7 7 6 6 6 6 6 7 6 6 7 7 7 7 7 7 7 7 7 7 7 7 8 8 9 10 11 11 11 12 12 13 14 15 16 16 17 18 20 21 22 23
14 14 14 15 15 14 14 13 13 11 11 10 9 9 9 9 9 8 7 6 7 7 8 8 7 7 7 7 7 7 7 7 7 8 8 8 7 7 8 7 7 8 8 9 9 10 11 12 12 12 13 13 14 15 15 16 18 18 20 21 22 23 24
15 15 15 16 15 15 14 14 13 12 11 11 10 9 9 9 9 8 7 6 6 7 8 8 7 7 7 7 7 7 7 7 8 8 8 8 8 8 8 8 8 8 9 9 10 10 11 12 13 13 13 14 14 15 16 17 18 19 20 22 23 23 24
Wind_Direction
308 310 310 310 310 309 307 304 302 301 299 299 298 297 296 295 295 294 291 288 285 282 280 278 276 274 274 275 275 275 275 276 277 277 274 270 267 266 267 271 276 278 279 281 284 285 285 282 276 273 273 272 274 279 282 282 280 277 275 274 275 277 278
315 315 316 316 316 315 312 309 308 307 307 306 307 307 306 304 302 301 299 296 292 289 286 283 280 276 275 274 274 274 274 274 276 278 277 275 272 268 267 269 272 274 276 279 282 283 283 282 278 268 263 266 270 275 277 275 274 273 272 272 273 275 275
319 319 320 320 319 317 313 311 312 314 316 320 323 324 322 319 317 313 309 307 302 297 291 286 282 278 276 275 274 275 276 277 279 281 280 278 277 274 273 273 273 275 276 278 280 281 281 280 276 270 262 262 264 268 271 270 270 270 271 272 274 275 275
321 322 323 323 320 317 313 313 318 321 326 335 336 331 328 329 329 323 320 319 316 312 305 296 285 278 276 277 278 280 283 284 285 285 284 281 280 281 282 281 279 280 280 280 279 280 281 279 277 273 269 266 262 262 264 264 265 268 272 275 275 275 274
323 324 325 325 323 320 317 318 322 325 331 339 338 335 336 336 335 331 328 328 326 325 322 316 311 304 297 293 290 289 290 293 296 295 291 287 284 284 284 284 284 283 282 282 282 281 282 281 278 276 277 275 268 262 260 260 262 267 272 274 274 274 272
327 327 328 328 328 325 323 322 324 326 330 335 338 342 342 340 342 341 337 335 333 334 333 331 331 327 322 314 306 301 301 302 302 300 297 293 288 285 285 286 287 287 286 286 286 286 284 283 280 279 280 279 275 268 264 262 262 264 269 272 272 272 272
331 331 331 332 333 332 329 326 325 325 328 332 336 341 342 344 349 349 345 340 338 338 337 336 334 332 329 320 309 301 301 302 298 294 292 290 289 287 286 287 288 289 289 289 288 287 287 286 284 282 279 277 277 274 270 269 269 268 268 269 271 271 270
336 333 334 335 335 334 332 329 327 327 329 329 328 330 335 343 348 349 349 346 343 343 342 338 336 337 335 325 317 309 302 300 296 294 293 290 287 285 285 286 286 287 288 288 288 288 290 291 290 287 282 279 278 276 273 273 275 273 268 267 270 271 272
337 334 334 334 332 333 332 328 327 329 329 326 320 317 321 330 336 338 342 345 345 347 347 343 339 338 331 320 321 321 310 305 301 298 296 292 289 287 286 286 285 284 284 283 286 289 292 294 294 294 289 283 280 278 276 277 277 274 272 272 273 274 276
337 334 333 332 331 332 331 328 327 326 324 323 320 316 311 310 313 316 324 334 339 340 342 342 341 338 329 321 323 325 319 312 307 302 299 296 294 291 288 287 285 283 281 278 280 285 289 291 293 296 294 290 288 285 282 282 280 275 274 276 276 275 277
333 332 332 331 331 331 331 331 328 322 317 318 320 318 311 304 305 309 315 322 328 331 331 332 335 335 330 327 329 330 324 317 310 305 304 301 299 297 293 289 287 285 283 280 280 282 285 286 288 291 293 296 298 293 286 284 284 281 277 275 276 277 278
326 329 330 331 330 328 331 333 332 324 314 308 305 302 302 301 301 304 309 315 321 324 323 322 326 327 324 322 322 322 318 314 310 307 305 303 302 302 299 296 294 292 290 289 288 288 287 287 290 293 295 298 299 296 293 292 288 284 281 277 279 283 286
318 324 327 328 328 328 330 332 333 328 318 310 305 303 304 301 299 301 305 311 318 320 317 314 315 315 311 309 309 309 308 306 305 303 302 301 301 301 300 299 298 297 296 296 296 295 293 293 295 299 301 300 298 296 295 294 283 273 275 279 283 287 290
311 318 323 325 327 327 328 329 329 329 326 323 322 321 319 313 308 307 307 309 313 314 312 307 305 303 301 301 303 304 305 305 303 301 299 299 298 298 298 297 295 295 295 296 296 296 296 295 297 299 301 300 298 295 293 293 289 281 282 289 292 292 292
305 313 319 324 325 323 323 322 323 326 331 337 342 342 339 332 326 322 318 316 312 307 306 302 300 301 301 303 305 305 306 305 303 302 300 299 299 300 301 299 295 292 291 292 292 290 290 291 293 297 300 300 298 296 292 292 295 296 297 299 299 298 296
300 310 316 320 321 318 315 314 315 319 327 341 350 352 349 344 340 336 329 323 314 308 305 303 302 305 306 307 308 308 308 308 308 309 309 308 305 305 306 304 299 293 289 289 289 287 286 286 289 291 295 297 297 296 293 290 292 294 297 299 298 297 296
298 306 312 314 315 313 309 307 307 310 322 339 347 349 351 350 347 347 342 333 326 320 317 314 314 316 317 316 314 313 312 311 314 316 318 318 314 310 309 307 304 299 293 290 289 288 287 286 287 288 289 290 290 289 288 287 287 287 289 291 292 291 290
297 301 305 309 312 310 306 301 300 306 322 336 338 342 349 351 351 350 345 338 333 329 327 325 323 322 322 321 318 317 316 315 315 316 317 317 315 312 310 308 306 302 298 295 291 289 288 287 288 288 289 289 288 288 287 286 286 285 286 287 288 288 288
297 298 301 305 308 308 302 296 295 304 321 329 328 335 342 342 345 348 344 340 336 332 328 325 323 323 323 323 323 322 321 318 317 317 318 318 317 315 312 308 305 301 298 296 293 290 288 288 288 289 290 291 291 290 290 289 289 289 289 289 289 289 289
296 295 297 299 301 301 297 292 293 302 315 317 319 331 338 340 348 350 347 343 336 330 325 322 324 324 322 322 321 321 320 319 319 319 321 322 321 318 316 312 310 306 303 300 296 293 291 290 290 291 291 292 292 292 292 292 292 293 293 294 294 293 292
295 291 290 290 292 292 289 286 289 299 308 311 322 336 341 347 352 350 343 337 329 322 320 320 320 318 315 313 314 316 318 318 319 319 320 320 318 317 315 314 313 311 310 308 306 303 301 299 297 296 295 294 293 294 293 293 293 293 294 294 295 296 296
297 291 286 284 284 282 280 279 285 299 307 317 331 337 339 342 341 334 327 322 319 317 316 316 314 310 308 311 316 318 317 317 317 317 317 317 317 315 313 312 312 311 311 309 308 306 304 302 301 299 298 297 296 295 294 293 293 293 294 295 295 296 296
298 292 287 285 278 269 267 270 282 306 311 320 326 323 324 324 320 316 313 310 311 312 312 311 310 310 314 320 322 319 316 316 316 316 316 315 313 312 311 312 311 311 311 310 310 310 309 309 308 307 307 306 305 305 303 301 300 299 299 299 299 298 298
297 291 286 283 270 254 248 249 275 303 304 308 310 311 312 311 309 309 307 307 309 310 311 312 312 314 317 320 319 315 313 314 314 314 315 315 315 315 315 316 317 318 320 322 323 323 322 322 322 322 323 321 319 317 317 316 316 316 316 315 313 312 310
292 285 280 272 255 238 241 250 270 294 299 302 305 305 305 304 305 305 304 307 309 309 311 312 311 311 310 312 313 312 312 314 316 318 321 321 322 321 320 321 324 330 334 337 339 342 343 346 348 347 344 340 337 335 334 334 335 337 337 335 333 330 327
281 275 269 258 243 231 241 259 275 290 299 302 302 300 300 301 301 301 302 304 304 304 306 307 306 304 303 306 309 311 313 318 322 327 328 327 323 322 323 326 332 341 346 349 351 354 356 357 357 355 353 351 349 348 348 350 351 351 351 348 344 341 336
269 264 256 248 242 238 244 263 281 292 298 299 295 292 294 295 293 292 295 296 297 299 301 302 302 300 300 305 310 313 319 325 329 331 328 324 321 322 326 333 341 350 354 355 357 357 357 357 355 353 351 350 350 351 351 353 353 352 351 349 346 344 341
258 250 242 240 244 245 251 268 283 291 294 291 287 285 285 285 284 285 288 290 292 296 298 299 300 299 300 305 311 319 326 328 329 325 319 317 318 321 326 333 343 351 353 355 356 354 353 352 349 348 348 348 349 350 350 352 352 351 349 347 345 344 343
248 238 230 234 242 247 257 271 280 286 287 284 280 277 277 277 278 281 286 289 291 293 295 297 297 297 300 305 312 320 325 326 322 316 311 311 313 317 323 328 335 342 348 350 350 347 344 343 342 344 346 348 349 348 349 351 352 351 349 347 346 344 343
240 230 223 229 239 249 260 269 276 280 281 279 275 272 271 272 275 279 284 288 290 293 294 295 297 300 304 307 312 316 317 316 312 307 306 307 309 312 317 320 327 336 342 343 340 337 335 336 338 342 346 348 348 348 350 352 351 349 347 346 344 343 342
235 225 221 228 241 252 262 268 272 275 275 273 272 272 272 272 275 280 284 285 288 290 291 292 296 303 307 308 309 309 306 303 301 301 302 303 305 308 312 317 324 331 333 334 332 331 331 332 334 339 344 346 346 348 351 351 348 346 345 344 343 341 340
232 225 223 230 243 255 264 269 270 270 270 269 270 273 275 276 278 282 284 285 287 286 286 287 292 298 303 304 303 301 299 298 300 302 303 303 303 305 308 312 317 321 323 327 327 326 327 328 330 335 339 342 345 349 350 347 344 344 344 342 341 339 337
230 225 225 232 245 258 266 270 270 268 265 264 267 270 272 276 280 283 284 285 287 288 288 289 291 295 296 297 297 297 297 299 302 305 304 300 298 299 299 301 305 310 315 320 321 321 323 323 325 331 336 340 344 347 344 341 342 343 341 339 339 338 338
229 225 226 233 246 258 265 268 268 265 261 261 265 268 271 275 279 284 288 290 291 292 291 289 291 293 293 293 293 293 296 298 302 305 302 299 297 296 294 296 301 306 310 314 317 319 320 320 322 328 333 338 341 342 340 340 341 340 340 341 341 341 340
229 226 228 235 245 255 261 264 263 260 257 259 263 268 273 279 284 290 296 296 295 297 297 296 295 294 293 294 294 296 299 302 306 308 305 302 301 297 295 296 301 305 308 312 317 320 319 318 322 327 332 335 340 341 341 340 340 340 342 343 343 341 340
230 228 228 234 243 251 257 259 257 254 252 256 262 266 272 279 285 292 296 296 295 298 298 296 295 295 296 299 301 305 309 311 314 314 310 308 304 298 295 295 298 302 306 310 315 319 320 320 324 328 332 336 340 341 340 340 340 342 343 343 341 340 338
230 229 229 233 241 248 251 252 252 248 248 253 260 264 269 275 281 288 291 289 288 289 289 288 289 293 299 303 307 310 314 317 317 315 312 309 304 298 294 294 295 298 302 307 314 320 323 324 326 329 333 336 339 340 340 340 340 341 342 341 340 338 337
Height
3135 3133 3132 3131 3130 3129 3128 3127 3127 3126 3126 3125 3125 3125 3125 3125 3125 3125 3125 3125 3125 3125 3125 3126 3126 3127 3127 3127 3127 3127 3127 3127 3127 3128 3128 3129 3129 3130 3130 3131 3131 3131 3131 3131 3131 3130 3130 3131 3132 3132 3132 3132 3132 3133 3134 3135 3135 3135 3136 3136 3137 3137 3137
3132 3131 3130 3129 3128 3127 3126 3125 3124 3124 3123 3123 3123 3123 3123 3122 3122 3122 3122 3122 3122 3122 3122 3123 3123 3123 3124 3124 3124 3124 3124 3125 3125 3125 3125 3126 3126 3126 3127 3128 3128 3128 3129 3129 3129 3128 3128 3127 3128 3130 3129 3128 3129 3130 3130 3131 3131 3131 3132 3132 3133 3134 3134
3131 3129 3128 3127 3126 3125 3124 3123 3123 3123 3122 3122 3122 3121 3121 3121 3121 3120 3120 3120 3120 3120 3120 3120 3120 3120 3121 3121 3121 3122 3122 3122 3123 3123 3123 3123 3124 3124 3124 3125 3125 3126 3126 3127 3126 3126 3126 3125 3125 3126 3126 3126 3126 3126 3126 3127 3127 3128 3128 3129 3129 3130 3130
3129 3128 3127 3126 3125 3124 3123 3122 3122 3121 3121 3121 3121 3120 3120 3119 3119 3119 3119 3118 3118 3118 3118 3118 3118 3118 3119 3119 3119 3120 3120 3120 3121 3121 3121 3122 3122 3122 3122 3123 3123 3123 3123 3124 3124 3123 3123 3123 3123 3123 3123 3123 3122 3123 3123 3123 3124 3124 3125 3125 3126 3126 3126
3128 3127 3126 3124 3123 3122 3122 3121 3121 3120 3120 3120 3120 3119 3119 3118 3118 3118 3118 3118 3117 3117 3117 3117 3117 3117 3118 3118 3118 3118 3119 3119 3120 3120 3120 3120 3120 3120 3121 3121 3121 3121 3121 3121 3121 3121 3120 3121 3120 3120 3120 3120 3119 3120 3120 3120 3121 3121 3121 3122 3122 3122 3122
3127 3126 3124 3123 3122 3121 3120 3120 3120 3119 3119 3119 3119 3118 3118 3117 3117 3117 3117 3117 3117 3117 3116 3116 3116 3117 3117 3117 3117 3118 3118 3118 3118 3119 3119 3119 3119 3119 3119 3119 3119 3119 3119 3118 3118 3118 3118 3118 3118 3119 3118 3117 3117 3117 3117 3117 3118 3118 3118 3118 3118 3118 3118
3126 3125 3123 3122 3121 3120 3119 3119 3118 3118 3118 3118 3118 3117 3117 3117 3117 3116 3116 3116 3116 3116 3116 3116 3116 3116 3116 3116 3116 3117 3117 3117 3117 3117 3117 3117 3117 3117 3117 3117 3117 3116 3116 3116 3116 3116 3116 3116 3116 3117 3116 3116 3115 3116 3115 3115 3115 3115 3115 3114 3114 3114 3114
3125 3124 3123 3121 3120 3119 3118 3118 3117 3117 3117 3117 3117 3117 3116 3116 3116 3116 3116 3116 3116 3116 3116 3116 3116 3116 3116 3115 3116 3116 3116 3116 3116 3116 3116 3116 3115 3115 3115 3115 3115 3115 3114 3114 3114 3113 3114 3114 3114 3114 3114 3114 3114 3114 3113 3113 3113 3112 3111 3111 3111 3111 3111
3125 3123 3122 3121 3120 3119 3118 3117 3116 3116 3116 3116 3116 3116 3116 3116 3116 3116 3115 3115 3116 3116 3116 3115 3115 3115 3115 3115 3115 3115 3115 3114 3114 3114 3114 3114 3114 3114 3113 3113 3113 3113 3113 3112 3112 3112 3112 3112 3112 3112 3112 3112 3112 3111 3111 3111 3111 3109 3108 3108 3108 3108 3108
3124 3123 3121 3120 3119 3118 3117 3116 3116 3115 3115 3115 3115 3115 3115 3115 3115 3115 3115 3115 3115 3115 3115 3115 3115 3115 3115 3114 3114 3114 3114 3113 3113 3113 3113 3113 3113 3112 3112 3112 3111 3111 3111 3111 3111 3110 3110 3110 3110 3110 3110 3110 3110 3110 3109 3109 3109 3107 3106 3106 3106 3106 3106
3124 3122 3121 3120 3119 3118 3117 3116 3115 3115 3115 3114 3114 3114 3114 3114 3114 3114 3114 3114 3114 3114 3114 3114 3114 3114 3114 3114 3114 3113 3113 3112 3112 3112 3112 3112 3111 3111 3111 3111 3110 3110 3110 3109 3109 3109 3109 3108 3108 3108 3107 3108 3109 3109 3108 3107 3107 3105 3104 3103 3103 3103 3104
3124 3122 3121 3120 3118 3117 3116 3115 3115 3114 3114 3114 3114 3113 3113 3113 3113 3113 3113 3113 3114 3114 3113 3113 3113 3113 3113 3113 3113 3112 3112 3111 3111 3111 3111 3111 3110 3110 3110 3109 3109 3109 3109 3108 3108 3108 3108 3107 3106 3106 3105 3106 3107 3107 3106 3106 3106 3104 3103 3102 3102 3102 3103
3124 3122 3121 3120 3118 3117 3116 3115 3114 3114 3114 3113 3113 3113 3112 3112 3112 3112 3113 3113 3113 3113 3113 3113 3113 3113 3112 3112 3112 3111 3111 3110 3110 3110 3110 3109 3109 3109 3109 3108 3108 3108 3107 3107 3107 3107 3106 3106 3105 3105 3104 3104 3104 3105 3105 3104 3104 3103 3101 3100 3101 3101 3101
3123 3122 3121 3119 3118 3117 3116 3115 3114 3114 3113 3113 3112 3112 3112 3111 3111 3111 3112 3112 3112 3112 3112 3112 3112 3111 3111 3111 3111 3110 3110 3109 3109 3109 3108 3108 3108 3108 3108 3108 3107 3107 3106 3106 3106 3105 3105 3104 3104 3104 3103 3103 3103 3103 3103 3102 3102 3100 3099 3099 3100 3100 3100
3122 3121 3120 3118 3117 3116 3115 3114 3114 3113 3113 3112 3112 3111 3111 3111 3111 3111 3111 3111 3111 3111 3111 3111 3110 3110 3110 3110 3110 3109 3109 3108 3108 3107 3107 3107 3106 3106 3106 3106 3106 3105 3105 3105 3104 3104 3103 3103 3103 3102 3102 3101 3101 3101 3101 3101 3100 3099 3098 3098 3099 3098 3098
3120 3120 3118 3117 3116 3115 3114 3114 3113 3113 3112 3112 3111 3111 3110 3110 3110 3110 3110 3110 3110 3110 3110 3109 3109 3109 3109 3109 3109 3108 3108 3107 3107 3106 3106 3106 3105 3105 3105 3105 3105 3104 3104 3103 3103 3103 3102 3102 3101 3101 3100 3100 3100 3100 3099 3099 3099 3098 3098 3098 3097 3097 3097
3119 3118 3117 3116 3115 3114 3114 3113 3113 3112 3112 3112 3111 3111 3110 3110 3110 3110 3109 3109 3109 3109 3109 3108 3108 3108 3108 3108 3107 3107 3106 3106 3106 3105 3105 3105 3105 3104 3104 3104 3103 3103 3103 3102 3102 3101 3101 3100 3100 3100 3099 3099 3098 3098 3098 3098 3098 3097 3097 3096 3096 3096 3096
3117 3117 3116 3115 3114 3113 3113 3113 3112 3111 3111 3111 3111 3110 3110 3110 3110 3109 3109 3109 3108 3108 3108 3108 3107 3107 3107 3107 3106 3106 3105 3105 3105 3104 3104 3104 3104 3103 3103 3103 3102 3102 3102 3101 3101 3100 3100 3099 3099 3098 3098 3097 3097 3097 3097 3096 3096 3096 3095 3095 3095 3094 3094
3116 3116 3115 3114 3113 3113 3112 3112 3112 3111 3111 3111 3110 3110 3110 3110 3110 3109 3109 3108 3108 3108 3107 3107 3107 3106 3106 3106 3105 3105 3105 3104 3104 3104 3104 3103 3103 3102 3102 3102 3101 3101 3100 3100 3100 3099 3099 3098 3097 3097 3096 3096 3095 3095 3095 3095 3095 3094 3094 3093 3093 3092 3092
3115 3114 3114 3113 3113 3112 3112 3112 3111 3111 3111 3110 3110 3110 3110 3110 3109 3109 3108 3108 3108 3107 3107 3107 3106 3106 3105 3105 3105 3105 3104 3104 3104 3104 3103 3103 3102 3102 3101 3101 3100 3100 3100 3099 3099 3098 3098 3097 3096 3096 3095 3095 3094 3094 3093 3093 3093 3092 3092 3091 3091 3090 3090
3114 3113 3113 3112 3112 3112 3111 3111 3111 3111 3110 3110 3109 3109 3109 3109 3109 3108 3108 3108 3107 3107 3107 3106 3106 3105 3105 3105 3105 3104 3104 3104 3104 3103 3103 3102 3102 3101 3101 3100 3100 3099 3099 3098 3098 3097 3097 3096 3096 3095 3094 3094 3093 3093 3092 3092 3091 3091 3090 3089 3089 3088 3087
3113 3112 3112 3112 3111 3111 3111 3111 3111 3110 3110 3109 3109 3109 3109 3108 3108 3108 3108 3107 3107 3106 3106 3105 3105 3105 3104 3104 3104 3104 3103 3103 3103 3103 3102 3102 3101 3101 3100 3100 3099 3099 3098 3098 3097 3096 3096 3095 3095 3094 3093 3093 3092 3092 3091 3090 3090 3089 3089 3088 3087 3086 3085
3112 3111 3111 3111 3111 3111 3110 3110 3110 3110 3109 3109 3109 3108 3108 3108 3108 3107 3107 3107 3106 3106 3105 3105 3104 3104 3103 3103 3103 3103 3103 3102 3102 3102 3102 3101 3101 3100 3100 3099 3099 3098 3098 3097 3097 3096 3095 3094 3094 3093 3092 3092 3091 3090 3090 3089 3088 3088 3087 3086 3086 3085 3084
3111 3110 3110 3110 3110 3110 3110 3110 3110 3110 3109 3109 3108 3108 3108 3107 3107 3107 3106 3106 3106 3105 3105 3104 3104 3103 3103 3103 3103 3102 3102 3102 3101 3101 3101 3100 3100 3099 3099 3098 3098 3097 3097 3096 3096 3095 3095 3094 3093 3092 3092 3091 3090 3089 3089 3088 3087 3086 3086 3085 3084 3083 3082
3110 3110 3110 3110 3110 3110 3110 3110 3110 3109 3109 3108 3108 3107 3107 3106 3106 3106 3106 3105 3105 3105 3104 3104 3103 3103 3102 3102 3102 3102 3101 3101 3101 3100 3100 3099 3099 3099 3098 3098 3097 3097 3096 3095 3095 3094 3094 3093 3092 3091 3091 3090 3089 3089 3088 3087 3086 3085 3084 3083 3082 3081 3080
3109 3109 3109 3109 3109 3109 3109 3109 3109 3109 3108 3108 3107 3106 3106 3106 3105 3105 3105 3105 3105 3104 3104 3103 3103 3102 3102 3102 3101 3101 3101 3100 3100 3099 3099 3099 3098 3098 3097 3097 3096 3096 3095 3094 3093 3093 3092 3091 3090 3090 3089 3088 3087 3087 3086 3085 3084 3083 3082 3081 3080 3079 3078
3108 3108 3108 3108 3109 3109 3109 3109 3108 3108 3108 3107 3106 3106 3106 3105 3105 3105 3105 3105 3104 3104 3104 3103 3103 3102 3101 3101 3101 3101 3100 3100 3099 3099 3098 3098 3097 3097 3096 3096 3095 3094 3094 3093 3092 3091 3091 3090 3089 3088 3087 3087 3086 3085 3083 3082 3081 3080 3080 3079 3078 3077 3076
3107 3107 3107 3108 3108 3108 3108 3108 3108 3108 3107 3107 3106 3106 3105 3105 3105 3104 3104 3104 3104 3104 3103 3103 3102 3102 3101 3101 3100 3100 3100 3100 3099 3099 3098 3098 3097 3096 3095 3094 3094 3093 3092 3092 3091 3091 3090 3089 3088 3087 3087 3085 3084 3083 3082 3081 3080 3079 3078 3076 3075 3074 3073
3106 3106 3106 3107 3107 3107 3107 3107 3107 3107 3107 3106 3106 3105 3105 3105 3104 3104 3104 3104 3103 3103 3103 3102 3102 3101 3101 3101 3100 3100 3100 3099 3099 3098 3098 3097 3096 3095 3094 3094 3093 3092 3092 3091 3091 3090 3090 3089 3088 3087 3086 3085 3083 3082 3081 3080 3078 3077 3076 3074 3073 3072 3070
3105 3105 3105 3106 3106 3106 3106 3106 3106 3106 3106 3105 3105 3105 3104 3104 3104 3103 3103 3103 3103 3102 3102 3101 3101 3101 3101 3100 3100 3099 3099 3099 3098 3098 3097 3096 3096 3095 3094 3093 3092 3092 3091 3091 3090 3090 3089 3088 3087 3086 3085 3084 3082 3081 3080 3078 3077 3076 3074 3073 3072 3071 3069
3103 3104 3104 3104 3105 3105 3105 3105 3105 3105 3105 3104 3104 3104 3103 3103 3103 3103 3102 3102 3102 3102 3101 3101 3100 3100 3100 3100 3099 3099 3099 3099 3098 3097 3097 3096 3095 3094 3094 3093 3092 3091 3091 3090 3090 3089 3088 3087 3086 3085 3084 3083 3081 3080 3079 3077 3076 3075 3073 3072 3071 3070 3068
3102 3102 3103 3103 3103 3103 3104 3104 3104 3104 3103 3103 3103 3103 3102 3102 3102 3102 3102 3101 3101 3101 3101 3100 3100 3100 3099 3099 3099 3099 3099 3098 3098 3097 3096 3095 3095 3094 3093 3093 3092 3091 3091 3090 3089 3089 3088 3087 3086 3085 3083 3082 3081 3079 3078 3077 3076 3074 3073 3072 3070 3069 3068
3100 3101 3101 3102 3102 3102 3102 3102 3102 3102 3102 3102 3102 3102 3101 3101 3101 3101 3101 3101 3101 3100 3100 3100 3100 3099 3099 3099 3099 3099 3098 3097 3097 3096 3096 3095 3094 3094 3093 3092 3092 3091 3090 3090 3089 3088 3088 3087 3086 3084 3083 3082 3080 3079 3078 3077 3076 3075 3073 3072 3070 3068 3067
3098 3099 3100 3100 3101 3101 3101 3101 3101 3101 3101 3100 3100 3100 3100 3100 3100 3100 3100 3100 3099 3099 3099 3099 3099 3099 3099 3099 3098 3098 3097 3097 3096 3095 3095 3094 3094 3093 3092 3092 3091 3091 3090 3089 3089 3088 3087 3086 3085 3084 3082 3081 3080 3079 3078 3077 3075 3074 3073 3071 3069 3068 3066
3096 3097 3098 3099 3099 3100 3100 3099 3099 3099 3099 3099 3099 3099 3099 3099 3099 3099 3099 3099 3098 3098 3098 3098 3098 3098 3098 3098 3097 3097 3096 3096 3095 3094 3094 3093 3093 3092 3091 3091 3090 3090 3089 3089 3088 3087 3087 3086 3084 3083 3082 3080 3079 3078 3077 3075 3074 3073 3071 3070 3068 3066 3065
3094 3095 3096 3097 3098 3098 3098 3098 3098 3098 3098 3098 3098 3098 3098 3098 3098 3098 3098 3098 3097 3097 3097 3097 3097 3097 3097 3097 3096 3096 3095 3094 3094 3093 3093 3092 3092 3091 3090 3090 3089 3089 3088 3088 3087 3086 3086 3085 3083 3082 3080 3079 3077 3076 3075 3074 3073 3071 3069 3068 3067 3065 3063
3092 3093 3094 3095 3096 3096 3096 3096 3096 3096 3096 3097 3097 3097 3097 3097 3097 3097 3097 3097 3097 3096 3096 3096 3096 3096 3095 3095 3095 3095 3094 3093 3093 3092 3092 3091 3090 3090 3090 3089 3088 3088 3087 3087 3086 3085 3085 3083 3082 3081 3079 3077 3076 3075 3073 3072 3071 3070 3068 3067 3065 3064 3062